TimeEDT,TemperatureF,Dew PointF,Humidity,Sea Level PressureIn,VisibilityMPH,Wind Direction,Wind SpeedMPH,Gust SpeedMPH,PrecipitationIn,Events,Conditions,WindDirDegrees,DateUTC
12:54 AM,55.9,55.9,100,30.19,-9999.0,Variable,4.6,-,0.02,,Unknown,0,2013-05-20 04:54:00
1:54 AM,57.0,55.9,96,30.16,-9999.0,South,6.9,-,0.02,,Unknown,170,2013-05-20 05:54:00
2:54 AM,57.0,55.9,96,30.14,-9999.0,South,6.9,-,0.02,,Unknown,190,2013-05-20 06:54:00
3:54 AM,57.0,55.9,96,30.12,-9999.0,SSW,6.9,-,N/A,,Unknown,200,2013-05-20 07:54:00
4:54 AM,57.0,57.0,100,30.12,-9999.0,SW,4.6,-,N/A,,Unknown,220,2013-05-20 08:54:00
5:54 AM,57.0,55.9,96,30.09,-9999.0,SSW,5.8,-,N/A,,Unknown,200,2013-05-20 09:54:00
6:54 AM,57.0,57.0,100,30.10,-9999.0,SSW,4.6,-,N/A,,Unknown,200,2013-05-20 10:54:00
7:54 AM,57.0,55.9,96,30.12,-9999.0,West,3.5,-,N/A,,Unknown,270,2013-05-20 11:54:00
8:54 AM,57.9,57.9,100,30.11,-9999.0,South,4.6,-,N/A,,Unknown,190,2013-05-20 12:54:00
9:54 AM,60.1,60.1,100,30.12,-9999.0,West,3.5,-,N/A,,Unknown,260,2013-05-20 13:54:00
10:54 AM,61.0,60.1,97,30.11,-9999.0,West,5.8,-,N/A,,Unknown,260,2013-05-20 14:54:00
11:54 AM,64.0,62.1,93,30.08,-9999.0,WSW,6.9,-,N/A,,Unknown,250,2013-05-20 15:54:00
12:54 PM,68.0,62.1,81,30.05,-9999.0,WSW,5.8,-,N/A,,Unknown,250,2013-05-20 16:54:00
1:54 PM,71.1,63.0,75,30.04,-9999.0,WSW,8.1,-,N/A,,Unknown,240,2013-05-20 17:54:00
2:54 PM,68.0,60.1,76,30.03,-9999.0,South,5.8,-,N/A,,Unknown,190,2013-05-20 18:54:00
3:54 PM,66.9,59.0,76,30.02,-9999.0,Variable,4.6,-,N/A,,Unknown,0,2013-05-20 19:54:00
4:54 PM,70.0,61.0,73,29.99,-9999.0,Variable,5.8,-,N/A,,Unknown,0,2013-05-20 20:54:00
5:54 PM,66.0,60.1,81,29.99,-9999.0,SW,8.1,16.1,N/A,,Unknown,220,2013-05-20 21:54:00
6:54 PM,63.0,59.0,87,30.01,-9999.0,SW,11.5,18.4,N/A,,Unknown,220,2013-05-20 22:54:00
7:54 PM,63.0,61.0,93,30.00,-9999.0,SW,5.8,-,N/A,,Unknown,220,2013-05-20 23:54:00
8:54 PM,64.0,62.1,93,30.00,-9999.0,SW,6.9,-,N/A,,Unknown,230,2013-05-21 00:54:00
9:54 PM,63.0,61.0,93,30.01,-9999.0,SW,6.9,-,N/A,,Unknown,230,2013-05-21 01:54:00
10:54 PM,63.0,61.0,93,30.00,-9999.0,SW,3.5,-,N/A,,Unknown,220,2013-05-21 02:54:00
11:54 PM,63.0,61.0,93,30.00,-9999.0,SW,4.6,-,N/A,,Unknown,230,2013-05-21 03:54:00